When you browse on this site, cookies collect data to enhance your experience and personalize the content and advertising you see.
Visit our Privacy Policy to learn more. By continuing to use the site, you agree to this use of cookies and data.
  • En España
  • Lista de países
  • Para 7 días
  • Temperatura del agua
  • El tiempo en el mapa
  • Informadores
  • user-avatar
    Iniciar sesión

    Tiempo cada hora Aktobe

    Hoy, 21 Agosto, Miércoles

    Tiempo Temperatura Precipitaciones Viento Presión Humedad
    00:00 +28°C° 0 mm 2 mps 744 mmHg 29%
    01:00 +28°C° 0 mm 2 mps 743 mmHg 27%
    02:00 +28°C° 0 mm 3 mps 743 mmHg 28%
    03:00 +27°C° 0 mm 3 mps 743 mmHg 29%
    04:00 +27°C° 0 mm 4 mps 743 mmHg 31%
    05:00 +27°C° 0 mm 4 mps 743 mmHg 31%
    06:00 +27°C° 0 mm 4 mps 743 mmHg 31%
    07:00 +28°C° 0 mm 4 mps 743 mmHg 31%
    08:00 +30°C° 0 mm 5 mps 743 mmHg 28%
    09:00 +33°C° 0 mm 6 mps 743 mmHg 25%
    10:00 +35°C° 0 mm 7 mps 743 mmHg 22%
    11:00 +35°C° 0 mm 8 mps 743 mmHg 21%
    12:00 +37°C° 0 mm 8 mps 742 mmHg 21%
    13:00 +38°C° 0 mm 8 mps 742 mmHg 21%
    14:00 +38°C° 0 mm 8 mps 742 mmHg 21%
    15:00 +36°C° 0 mm 7 mps 742 mmHg 22%
    16:00 +36°C° 0 mm 7 mps 742 mmHg 23%
    17:00 +34°C° 0 mm 7 mps 741 mmHg 29%
    18:00 +33°C° 0 mm 6 mps 741 mmHg 34%
    19:00 +30°C° 0 mm 5 mps 741 mmHg 39%
    20:00 +28°C° 0 mm 5 mps 741 mmHg 44%
    21:00 +27°C° 0 mm 5 mps 741 mmHg 48%
    22:00 +26°C° 0 mm 5 mps 742 mmHg 52%
    23:00 +25°C° 0 mm 5 mps 742 mmHg 57%

    Mañana, 22 Agosto, Jueves

    Tiempo Temperatura Precipitaciones Viento Presión Humedad
    00:00 +23°C° 0 mm 5 mps 742 mmHg 61%
    01:00 +22°C° 0 mm 4 mps 742 mmHg 66%
    02:00 +21°C° 0 mm 5 mps 742 mmHg 69%
    03:00 +21°C° 0 mm 5 mps 743 mmHg 72%
    04:00 +20°C° 0 mm 5 mps 743 mmHg 74%
    05:00 +20°C° 0 mm 5 mps 743 mmHg 71%
    06:00 +20°C° 0 mm 6 mps 743 mmHg 67%
    07:00 +20°C° 0 mm 6 mps 744 mmHg 64%
    08:00 +21°C° 0 mm 6 mps 744 mmHg 56%
    09:00 +22°C° 0 mm 6 mps 744 mmHg 48%
    10:00 +24°C° 0 mm 6 mps 744 mmHg 40%
    11:00 +26°C° 0 mm 6 mps 744 mmHg 38%
    12:00 +27°C° 0 mm 5 mps 744 mmHg 35%
    13:00 +28°C° 0 mm 5 mps 744 mmHg 32%
    14:00 +28°C° 0 mm 4 mps 744 mmHg 30%
    15:00 +29°C° 0 mm 4 mps 744 mmHg 28%
    16:00 +29°C° 0 mm 4 mps 744 mmHg 25%
    17:00 +28°C° 0 mm 4 mps 744 mmHg 27%
    18:00 +27°C° 0 mm 3 mps 744 mmHg 29%
    19:00 +25°C° 0 mm 3 mps 744 mmHg 31%
    20:00 +24°C° 0 mm 3 mps 744 mmHg 34%
    21:00 +22°C° 0 mm 4 mps 745 mmHg 37%
    22:00 +21°C° 0 mm 4 mps 745 mmHg 40%
    23:00 +21°C° 0 mm 4 mps 745 mmHg 42%

    Pasado mañana, 23 Agosto, Viernes

    Tiempo Temperatura Precipitaciones Viento Presión Humedad
    00:00 +20°C° 0 mm 3 mps 745 mmHg 44%
    01:00 +20°C° 0 mm 3 mps 745 mmHg 46%
    02:00 +19°C° 0 mm 3 mps 745 mmHg 46%
    03:00 +19°C° 0 mm 3 mps 745 mmHg 47%
    04:00 +18°C° 0 mm 2 mps 746 mmHg 47%
    05:00 +19°C° 0 mm 3 mps 746 mmHg 46%
    06:00 +20°C° 0 mm 3 mps 746 mmHg 44%
    07:00 +20°C° 0 mm 3 mps 746 mmHg 43%
    08:00 +23°C° 0 mm 2 mps 746 mmHg 39%
    09:00 +25°C° 0 mm 2 mps 746 mmHg 34%
    10:00 +27°C° 0 mm 2 mps 747 mmHg 30%
    11:00 +27°C° 0 mm 2 mps 746 mmHg 28%
    12:00 +28°C° 0 mm 1 mps 746 mmHg 26%
    13:00 +29°C° 0 mm 1 mps 746 mmHg 24%
    14:00 +30°C° 0 mm 1 mps 746 mmHg 23%
    15:00 +30°C° 0 mm 1 mps 745 mmHg 22%
    16:00 +31°C° 0 mm 1 mps 745 mmHg 21%
    17:00 +29°C° 0 mm 1 mps 745 mmHg 25%
    18:00 +28°C° 0 mm 1 mps 745 mmHg 29%
    19:00 +24°C° 0 mm 0 mps 745 mmHg 33%
    20:00 +25°C° 0 mm 1 mps 745 mmHg 33%
    21:00 +25°C° 0 mm 1 mps 745 mmHg 33%
    22:00 +24°C° 0 mm 1 mps 745 mmHg 32%
    23:00 +24°C° 0 mm 1 mps 745 mmHg 33%

    24 Agosto, Sábado

    Tiempo Temperatura Precipitaciones Viento Presión Humedad
    00:00 +23°C° 0 mm 2 mps 745 mmHg 33%
    01:00 +23°C° 0 mm 2 mps 745 mmHg 33%
    02:00 +21°C° 0 mm 2 mps 745 mmHg 35%
    03:00 +21°C° 0 mm 2 mps 745 mmHg 36%
    04:00 +20°C° 0 mm 2 mps 745 mmHg 38%
    05:00 +21°C° 0 mm 2 mps 745 mmHg 37%
    06:00 +23°C° 0 mm 2 mps 745 mmHg 36%
    07:00 +24°C° 0 mm 2 mps 745 mmHg 35%
    08:00 +26°C° 0 mm 2 mps 745 mmHg 31%
    09:00 +28°C° 0 mm 2 mps 746 mmHg 27%
    10:00 +30°C° 0 mm 2 mps 746 mmHg 23%
    11:00 +31°C° 0 mm 2 mps 745 mmHg 22%
    12:00 +32°C° 0 mm 2 mps 745 mmHg 21%
    13:00 +34°C° 0 mm 2 mps 745 mmHg 20%
    14:00 +34°C° 0 mm 2 mps 745 mmHg 20%
    15:00 +34°C° 0 mm 2 mps 745 mmHg 20%
    16:00 +34°C° 0 mm 2 mps 744 mmHg 21%
    17:00 +32°C° 0 mm 2 mps 744 mmHg 24%
    18:00 +30°C° 0 mm 2 mps 744 mmHg 27%
    19:00 +29°C° 0 mm 2 mps 743 mmHg 31%
    20:00 +28°C° 0 mm 2 mps 744 mmHg 32%
    21:00 +27°C° 0 mm 2 mps 744 mmHg 33%
    22:00 +26°C° 0 mm 2 mps 744 mmHg 34%
    23:00 +26°C° 0 mm 2 mps 744 mmHg 36%

    25 Agosto, Domingo

    Tiempo Temperatura Precipitaciones Viento Presión Humedad
    00:00 +25°C° 0 mm 2 mps 744 mmHg 38%
    01:00 +25°C° 0 mm 2 mps 744 mmHg 40%
    02:00 +25°C° 0 mm 2 mps 743 mmHg 42%
    03:00 +24°C° 0 mm 2 mps 743 mmHg 44%
    04:00 +23°C° 0 mm 2 mps 743 mmHg 47%
    05:00 +24°C° 0 mm 2 mps 743 mmHg 46%
    06:00 +25°C° 0 mm 2 mps 743 mmHg 45%
    07:00 +25°C° 0 mm 2 mps 743 mmHg 43%
    08:00 +28°C° 0 mm 2 mps 743 mmHg 37%
    09:00 +30°C° 0 mm 2 mps 743 mmHg 31%
    10:00 +32°C° 0 mm 2 mps 743 mmHg 25%
    11:00 +33°C° 0 mm 3 mps 743 mmHg 24%
    12:00 +34°C° 0 mm 3 mps 743 mmHg 23%
    13:00 +34°C° 0 mm 4 mps 742 mmHg 22%
    14:00 +34°C° 0 mm 3 mps 742 mmHg 23%
    15:00 +33°C° 0 mm 3 mps 742 mmHg 25%
    16:00 +32°C° 0 mm 2 mps 742 mmHg 27%
    17:00 +31°C° 0 mm 2 mps 741 mmHg 28%
    18:00 +30°C° 0 mm 2 mps 741 mmHg 29%
    19:00 +29°C° 0 mm 2 mps 741 mmHg 30%
    20:00 +28°C° 0 mm 3 mps 741 mmHg 34%
    21:00 +27°C° 0 mm 3 mps 740 mmHg 38%
    22:00 +26°C° 0 mm 3 mps 740 mmHg 41%
    23:00 +25°C° 0 mm 3 mps 740 mmHg 47%

    26 Agosto, Lunes

    Tiempo Temperatura Precipitaciones Viento Presión Humedad
    00:00 +22°C° 0 mm 3 mps 740 mmHg 53%
    01:00 +21°C° 0 mm 3 mps 740 mmHg 59%
    02:00 +21°C° 0 mm 3 mps 740 mmHg 58%
    03:00 +20°C° 0 mm 3 mps 740 mmHg 58%
    04:00 +20°C° 0 mm 3 mps 740 mmHg 57%
    05:00 +20°C° 0 mm 3 mps 740 mmHg 54%
    06:00 +20°C° 0 mm 4 mps 740 mmHg 51%
    07:00 +20°C° 0 mm 4 mps 740 mmHg 48%
    08:00 +21°C° 0 mm 4 mps 740 mmHg 44%
    09:00 +23°C° 0 mm 5 mps 740 mmHg 39%
    10:00 +26°C° 0 mm 5 mps 740 mmHg 35%
    11:00 +26°C° 0 mm 5 mps 740 mmHg 33%
    12:00 +27°C° 0 mm 6 mps 740 mmHg 31%
    13:00 +28°C° 0 mm 6 mps 740 mmHg 29%
    14:00 +28°C° 0 mm 7 mps 740 mmHg 30%
    15:00 +27°C° 0 mm 8 mps 740 mmHg 31%
    16:00 +27°C° 0 mm 8 mps 740 mmHg 32%
    17:00 +26°C° 0 mm 8 mps 740 mmHg 35%
    18:00 +23°C° 0 mm 7 mps 740 mmHg 39%
    19:00 +22°C° 0 mm 6 mps 740 mmHg 43%
    20:00 +20°C° 0 mm 7 mps 740 mmHg 48%
    21:00 +17°C° 0 mm 7 mps 741 mmHg 53%
    22:00 +16°C° 0 mm 7 mps 741 mmHg 58%
    23:00 +15°C° 0 mm 6 mps 741 mmHg 61%
    Mostrar más